| time (UTC) | temp C | wind direction | speed KPH | gust KPH | rain 1hr cm | rain 24hr cm | rain mn cm | humidity % | barometer mb |
| 20260508064548 | 10 | 114 | 6.4 | 11.3 | 0.00 | 0.00 | 0.00 | 82 | 1014.9 |
| 20260508063050 | 10 | 116 | 6.4 | 14.5 | 0.00 | 0.00 | 0.00 | 82 | 1014.9 |
| 20260508061550 | 10 | 117 | 4.8 | 12.9 | 0.00 | 0.00 | 0.00 | 83 | 1014.9 |
| 20260508060050 | 10 | 117 | 4.8 | 9.7 | 0.00 | 0.00 | 0.00 | 82 | 1014.9 |
| 20260508054549 | 10 | 118 | 1.6 | 6.4 | 0.00 | 0.00 | 0.00 | 82 | 1014.9 |
| 20260508053049 | 9 | 118 | 3.2 | 9.7 | 0.00 | 0.00 | 0.00 | 83 | 1015.0 |
| 20260508051549 | 8 | 118 | 4.8 | 9.7 | 0.00 | 0.00 | 0.00 | 84 | 1015.0 |
| 20260508050049 | 9 | 118 | 3.2 | 9.7 | 0.00 | 0.00 | 0.00 | 83 | 1014.8 |
| 20260508044549 | 9 | 118 | 3.2 | 9.7 | 0.00 | 0.00 | 0.00 | 82 | 1014.7 |
| 20260508043048 | 9 | 118 | 0.0 | 6.4 | 0.00 | 0.00 | 0.00 | 81 | 1014.8 |
| 20260508041550 | 10 | 118 | 0.0 | 1.6 | 0.00 | 0.00 | 0.00 | 80 | 1014.9 |
| 20260508040049 | 10 | 0 | 0.0 | 0.0 | 0.00 | 0.00 | 0.00 | 80 | 1014.9 |
| 20260508034549 | 10 | 118 | 1.6 | 12.9 | 0.00 | 0.00 | 0.00 | 79 | 1014.8 |
| 20260508033049 | 10 | 116 | 4.8 | 12.9 | 0.00 | 0.00 | 0.00 | 79 | 1014.7 |
| 20260508031549 | 10 | 115 | 8.0 | 14.5 | 0.00 | 0.00 | 0.00 | 78 | 1014.7 |
| 20260508030048 | 10 | 116 | 6.4 | 12.9 | 0.00 | 0.00 | 0.00 | 77 | 1014.7 |
| 20260508024549 | 10 | 117 | 6.4 | 12.9 | 0.00 | 0.00 | 0.00 | 76 | 1014.6 |
| 20260508023051 | 10 | 118 | 8.0 | 14.5 | 0.00 | 0.00 | 0.00 | 76 | 1014.6 |
| 20260508021550 | 10 | 123 | 8.0 | 16.1 | 0.00 | 0.00 | 0.00 | 76 | 1014.6 |
| 20260508020050 | 10 | 124 | 8.0 | 14.5 | 0.00 | 0.00 | 0.00 | 75 | 1014.6 |
| 20260508014550 | 10 | 112 | 8.0 | 14.5 | 0.00 | 0.00 | 0.00 | 75 | 1014.7 |
| 20260508013050 | 10 | 112 | 8.0 | 16.1 | 0.00 | 0.00 | 0.00 | 75 | 1014.7 |
| 20260508011550 | 10 | 122 | 8.0 | 14.5 | 0.00 | 0.00 | 0.00 | 74 | 1014.9 |
| 20260508010049 | 10 | 138 | 8.0 | 14.5 | 0.00 | 0.00 | 0.00 | 72 | 1014.9 |
| 20260508004549 | 10 | 145 | 4.8 | 12.9 | 0.00 | 0.00 | 0.00 | 71 | 1014.8 |
| 20260508003049 | 11 | 138 | 6.4 | 19.3 | 0.00 | 0.00 | 0.00 | 70 | 1014.8 |
| 20260508001551 | 11 | 139 | 6.4 | 16.1 | 0.00 | 0.00 | 0.00 | 70 | 1014.9 |
| 20260508000051 | 11 | 152 | 6.4 | 14.5 | 0.00 | 0.00 | 0.00 | 71 | 1014.8 |
| 20260507234550 | 11 | 159 | 6.4 | 16.1 | 0.00 | 0.00 | 0.00 | 70 | 1014.8 |
| 20260507233050 | 11 | 176 | 4.8 | 17.7 | 0.00 | 0.00 | 0.00 | 69 | 1014.9 |
| 20260507231552 | 11 | 167 | 4.8 | 20.9 | 0.00 | 0.00 | 0.00 | 70 | 1014.9 |
| 20260507230052 | 12 | 152 | 8.0 | 19.3 | 0.00 | 0.00 | 0.00 | 72 | 1014.8 |
| 20260507224552 | 12 | 168 | 6.4 | 17.7 | 0.00 | 0.00 | 0.00 | 70 | 1014.9 |
| 20260507223052 | 12 | 207 | 4.8 | 11.3 | 0.00 | 0.00 | 0.00 | 68 | 1014.8 |
| 20260507221551 | 12 | 216 | 3.2 | 11.3 | 0.00 | 0.00 | 0.00 | 66 | 1014.9 |
| 20260507220051 | 12 | 216 | 3.2 | 8.0 | 0.00 | 0.00 | 0.00 | 66 | 1015.0 |
| 20260507214551 | 12 | 216 | 0.0 | 6.4 | 0.00 | 0.00 | 0.00 | 68 | 1015.0 |
| 20260507213051 | 12 | 0 | 0.0 | 0.0 | 0.00 | 0.00 | 0.00 | 71 | 1015.0 |
| 20260507211550 | 12 | 216 | 0.0 | 4.8 | 0.00 | 0.00 | 0.00 | 71 | 1014.9 |
| 20260507210050 | 12 | 0 | 0.0 | 0.0 | 0.00 | 0.00 | 0.00 | 71 | 1014.8 |
| 20260507204550 | 12 | 0 | 0.0 | 0.0 | 0.00 | 0.00 | 0.00 | 71 | 1014.7 |
| 20260507203052 | 12 | 0 | 0.0 | 0.0 | 0.00 | 0.00 | 0.00 | 71 | 1014.6 |
| 20260507201551 | 12 | 0 | 0.0 | 0.0 | 0.00 | 0.00 | 0.00 | 71 | 1014.5 |
| 20260507200051 | 12 | 216 | 0.0 | 9.7 | 0.00 | 0.00 | 0.00 | 72 | 1014.3 |
| 20260507194551 | 12 | 216 | 0.0 | 9.7 | 0.00 | 0.00 | 0.00 | 72 | 1014.1 |
| 20260507193051 | 12 | 0 | 0.0 | 0.0 | 0.00 | 0.00 | 0.00 | 75 | 1014.0 |
| 20260507191551 | 12 | 0 | 0.0 | 0.0 | 0.00 | 0.00 | 0.00 | 75 | 1014.1 |
| 20260507190053 | 12 | 0 | 0.0 | 0.0 | 0.00 | 0.00 | 0.00 | 74 | 1014.0 |
| 20260507184551 | 12 | 217 | 0.0 | 1.6 | 0.00 | 0.00 | 0.00 | 75 | 1014.1 |
| 20260507183051 | 12 | 216 | 0.0 | 3.2 | 0.00 | 0.00 | 0.00 | 76 | 1014.0 |
| 20260507181551 | 12 | 216 | 0.0 | 8.0 | 0.00 | 0.00 | 0.00 | 75 | 1013.9 |
| 20260507180050 | 12 | 216 | 0.0 | 4.8 | 0.00 | 0.00 | 0.00 | 75 | 1013.9 |
| 20260507174550 | 12 | 216 | 0.0 | 9.7 | 0.00 | 0.00 | 0.00 | 76 | 1013.8 |
| 20260507173052 | 12 | 216 | 0.0 | 8.0 | 0.00 | 0.00 | 0.00 | 74 | 1013.8 |
| 20260507171552 | 13 | 215 | 6.4 | 16.1 | 0.00 | 0.00 | 0.00 | 70 | 1013.9 |
| 20260507170052 | 13 | 213 | 1.6 | 11.3 | 0.00 | 0.00 | 0.00 | 68 | 1013.9 |
| 20260507164553 | 13 | 211 | 4.8 | 14.5 | 0.00 | 0.00 | 0.00 | 64 | 1013.9 |
| 20260507163051 | 13 | 204 | 6.4 | 14.5 | 0.00 | 0.00 | 0.00 | 62 | 1013.9 |
| 20260507161551 | 14 | 200 | 0.0 | 11.3 | 0.00 | 0.00 | 0.00 | 59 | 1013.9 |
| 20260507160051 | 14 | 200 | 3.2 | 11.3 | 0.00 | 0.00 | 0.00 | 56 | 1013.9 |
| 20260507154551 | 14 | 200 | 1.6 | 9.7 | 0.00 | 0.00 | 0.00 | 55 | 1014.0 |
| 20260507153051 | 14 | 200 | 6.4 | 14.5 | 0.00 | 0.00 | 0.00 | 53 | 1013.9 |
| 20260507151553 | 15 | 200 | 4.8 | 12.9 | 0.00 | 0.00 | 0.00 | 53 | 1014.0 |
| 20260507150053 | 15 | 184 | 6.4 | 17.7 | 0.00 | 0.00 | 0.00 | 53 | 1014.0 |
| 20260507144551 | 15 | 176 | 6.4 | 17.7 | 0.00 | 0.00 | 0.00 | 52 | 1014.0 |
| 20260507143051 | 15 | 174 | 1.6 | 11.3 | 0.00 | 0.00 | 0.00 | 52 | 1014.0 |
| 20260507141553 | 15 | 174 | 6.4 | 22.5 | 0.00 | 0.00 | 0.00 | 52 | 1014.1 |
| 20260507140053 | 15 | 160 | 4.8 | 17.7 | 0.00 | 0.00 | 0.00 | 50 | 1014.3 |
| 20260507134551 | 15 | 146 | 6.4 | 17.7 | 0.00 | 0.00 | 0.00 | 48 | 1014.2 |
| 20260507133051 | 16 | 156 | 8.0 | 17.7 | 0.00 | 0.00 | 0.00 | 48 | 1014.3 |
| 20260507131553 | 16 | 174 | 9.7 | 22.5 | 0.00 | 0.00 | 0.00 | 45 | 1014.3 |
| 20260507130053 | 16 | 171 | 8.0 | 19.3 | 0.00 | 0.00 | 0.00 | 46 | 1014.4 |
| 20260507124552 | 16 | 158 | 6.4 | 19.3 | 0.00 | 0.00 | 0.00 | 46 | 1014.5 |
| 20260507123052 | 16 | 136 | 6.4 | 19.3 | 0.00 | 0.00 | 0.00 | 44 | 1014.5 |
| 20260507121552 | 16 | 190 | 4.8 | 19.3 | 0.00 | 0.00 | 0.00 | 47 | 1014.5 |
| 20260507120052 | 16 | 154 | 6.4 | 19.3 | 0.00 | 0.00 | 0.00 | 50 | 1014.6 |
| 20260507114551 | 16 | 192 | 4.8 | 17.7 | 0.00 | 0.00 | 0.00 | 50 | 1014.7 |
| 20260507113051 | 15 | 175 | 8.0 | 17.7 | 0.00 | 0.00 | 0.00 | 49 | 1015.1 |
| 20260507111551 | 15 | 162 | 3.2 | 14.5 | 0.00 | 0.00 | 0.00 | 56 | 1014.9 |
| 20260507110053 | 13 | 116 | 4.8 | 19.3 | 0.00 | 0.00 | 0.00 | 61 | 1015.1 |
| 20260507104548 | 13 | 109 | 4.8 | 14.5 | 0.00 | 0.00 | 0.00 | 64 | 1015.2 |
| 20260507103048 | 12 | 117 | 6.4 | 14.5 | 0.00 | 0.00 | 0.00 | 69 | 1015.0 |
| 20260507101548 | 12 | 144 | 6.4 | 17.7 | 0.00 | 0.00 | 0.00 | 71 | 1015.3 |
| 20260507100047 | 11 | 153 | 3.2 | 14.5 | 0.00 | 0.00 | 0.00 | 72 | 1015.4 |
| 20260507094547 | 11 | 116 | 4.8 | 17.7 | 0.00 | 0.00 | 0.00 | 72 | 1015.6 |
| 20260507093047 | 10 | 98 | 3.2 | 9.7 | 0.00 | 0.00 | 0.00 | 76 | 1015.5 |
| 20260507091549 | 10 | 98 | 3.2 | 14.5 | 0.00 | 0.00 | 0.00 | 79 | 1015.5 |
| 20260507090050 | 9 | 98 | 6.4 | 12.9 | 0.00 | 0.00 | 0.00 | 80 | 1015.4 |
| 20260507084549 | 9 | 98 | 6.4 | 14.5 | 0.00 | 0.00 | 0.00 | 80 | 1015.5 |
| 20260507083050 | 8 | 98 | 4.8 | 16.1 | 0.00 | 0.00 | 0.00 | 81 | 1015.5 |
| 20260507081548 | 8 | 97 | 8.0 | 14.5 | 0.00 | 0.00 | 0.00 | 82 | 1015.3 |
| 20260507080048 | 8 | 97 | 9.7 | 17.7 | 0.00 | 0.00 | 0.00 | 84 | 1015.4 |
| 20260507074548 | 8 | 97 | 6.4 | 12.9 | 0.00 | 0.00 | 0.00 | 85 | 1015.3 |
| 20260507073047 | 7 | 96 | 4.8 | 11.3 | 0.00 | 0.00 | 0.00 | 86 | 1015.1 |
| 20260507071547 | 7 | 96 | 4.8 | 11.3 | 0.00 | 0.00 | 0.00 | 87 | 1015.1 |
| 20260507070047 | 7 | 97 | 8.0 | 17.7 | 0.00 | 0.00 | 0.00 | 88 | 1015.2 |